EW7893 Weather Reports


Display with metric or nautical units.
time (UTC)temp
F
wind
direction
speed
MPH
gust
MPH
rain 1hr
in
rain 24hr
in
rain mn
in
humidity
%
barometer
mb
20260510183028 73 165 2.0 7.0 0.00 0.18 0.01 61 1013.1
20260510181547 74 188 4.0 8.0 0.00 0.18 0.01 59 1013.0
20260510180304 74 89 2.0 6.0 0.00 0.18 0.01 59 1013.1
20260510180059 73 211 2.0 6.0 0.00 0.18 0.01 60 1013.1
20260510174503 72 184 1.0 6.0 0.00 0.18 0.01 61 1013.1
20260510173009 70 213 1.0 6.0 0.00 0.18 0.01 63 1013.1
20260510171506 70 165 0.0 6.0 0.00 0.18 0.01 65 1013.1
20260510170004 68 230 2.0 7.0 0.00 0.18 0.01 67 1013.3
20260510164516 66 86 1.0 5.0 0.00 0.18 0.01 69 1013.4
20260510163030 65 101 2.0 7.0 0.00 0.18 0.01 71 1013.5
20260510161557 65 281 2.0 6.0 0.00 0.18 0.01 72 1013.7
20260510160313 64 200 2.0 6.0 0.00 0.18 0.01 75 1013.8
20260510160059 63 160 1.0 4.0 0.00 0.18 0.01 76 1013.8
20260510154514 61 124 0.0 3.0 0.00 0.18 0.01 78 1013.9
20260510153028 60 178 1.0 4.0 0.00 0.18 0.01 81 1014.2
20260510151521 59 272 0.0 5.0 0.00 0.18 0.01 82 1013.9
20260510150041 58 127 0.0 4.0 0.00 0.18 0.01 84 1014.0
20260510144558 57 197 1.0 4.0 0.00 0.18 0.01 85 1014.0
20260510143019 57 101 1.0 4.0 0.00 0.18 0.01 86 1013.9
20260510141534 56 121 1.0 5.0 0.00 0.18 0.01 87 1013.9
20260510140311 56 235 1.0 3.0 0.00 0.18 0.01 88 1013.9
20260510140046 56 219 0.0 3.0 0.00 0.18 0.01 88 1013.9
20260510134613 55 186 1.0 4.0 0.00 0.18 0.01 89 1013.7
20260510133023 55 210 1.0 3.0 0.00 0.18 0.01 90 1013.7
20260510131529 54 110 2.0 5.0 0.00 0.18 0.01 91 1013.7
20260510130035 54 110 0.0 3.0 0.00 0.18 0.01 91 1013.3
20260510124549 53 123 0.0 3.0 0.00 0.18 0.01 91 1013.2
20260510123002 53 102 0.0 3.0 0.00 0.18 0.01 91 1013.2
20260510121502 54 125 1.0 3.0 0.00 0.18 0.01 91 1013.1
20260510120316 54 212 0.0 2.0 0.00 0.18 0.01 92 1012.9
20260510120002 54 156 0.0 2.0 0.00 0.18 0.01 92 1012.8
20260510114511 53 89 0.0 3.0 0.00 0.18 0.01 92 1012.7
20260510113031 53 138 0.0 1.0 0.00 0.18 0.01 93 1012.7
20260510111553 53 168 1.0 3.0 0.00 0.18 0.01 93 1012.5
20260510110100 53 124 0.0 1.0 0.00 0.18 0.01 93 1012.1
20260510104517 53 57 0.0 1.0 0.00 0.18 0.01 93 1011.9
20260510103019 53 1 0.0 1.0 0.00 0.18 0.01 93 1012.1
20260510101541 53 352 1.0 3.0 0.00 0.18 0.01 93 1011.9
20260510100323 53 337 1.0 3.0 0.00 0.18 0.01 93 1012.1
20260510100040 53 56 0.0 3.0 0.00 0.18 0.01 93 1012.0
20260510094557 53 70 1.0 4.0 0.00 0.18 0.01 93 1012.0
20260510093015 53 14 1.0 4.0 0.00 0.18 0.01 93 1012.3
20260510091524 52 341 0.0 3.0 0.00 0.18 0.01 93 1012.5
20260510090049 52 6 0.0 3.0 0.00 0.18 0.01 93 1012.5
20260510084603 52 13 0.0 4.0 0.00 0.18 0.01 93 1012.4
20260510083007 52 354 0.0 1.0 0.00 0.18 0.01 93 1011.9
20260510081538 52 357 0.0 1.0 0.00 0.18 0.01 93 1011.7
20260510080324 52 49 0.0 1.0 0.00 0.18 0.01 93 1011.7
20260510080028 52 49 0.0 1.0 0.00 0.18 0.01 93 1011.7
20260510074542 51 49 0.0 1.0 0.00 0.18 0.01 93 1011.7
20260510073104 51 358 0.0 2.0 0.00 0.18 0.01 93 1011.4
20260510071508 51 23 1.0 4.0 0.00 0.18 0.01 93 1011.7
20260510070021 51 7 0.0 1.0 0.00 0.18 0.01 93 1011.5
20260510064545 49 135 0.0 1.0 0.00 0.18 0.01 93 1011.4
20260510063057 48 136 0.0 0.0 0.00 0.18 0.01 93 1011.2
20260510061517 48 137 0.0 0.0 0.00 0.18 0.01 92 1011.1
20260510060303 49 136 0.0 0.0 0.00 0.18 0.01 92 1011.2
20260510060021 48 136 0.0 0.0 0.00 0.18 0.01 92 1011.3
20260510054522 49 136 0.0 0.0 0.00 0.18 0.01 92 1011.3
20260510053042 49 136 0.0 0.0 0.00 0.18 0.01 92 1011.3
20260510051550 49 136 0.0 0.0 0.01 0.18 0.01 92 1011.3
20260510050003 49 136 0.0 0.0 0.01 0.18 0.01 92 1011.5
20260510044540 49 136 0.0 0.0 0.01 0.18 0.01 92 1011.6
20260510043036 49 136 0.0 0.0 0.01 0.18 0.01 91 1011.7
20260510041541 50 136 0.0 0.0 0.00 0.17 0.00 92 1011.6
20260510040306 50 136 0.0 0.0 0.00 0.17 0.00 91 1011.4
20260510040100 50 136 0.0 0.0 0.00 0.17 0.17 91 1011.4
20260510034517 50 136 0.0 0.0 0.00 0.17 0.17 91 1011.2
20260510033048 50 136 0.0 0.0 0.00 0.17 0.17 91 1011.2
20260510031541 51 136 0.0 0.0 0.00 0.17 0.17 91 1011.2
20260510030112 51 136 0.0 0.0 0.00 0.17 0.17 91 1011.1
20260510024506 51 136 0.0 0.0 0.00 0.17 0.17 90 1011.2
20260510023011 52 136 0.0 0.0 0.00 0.17 0.17 91 1011.2
20260510021525 52 136 0.0 0.0 0.00 0.17 0.17 90 1011.2
20260510020311 53 136 0.0 0.0 0.00 0.17 0.17 90 1011.1
20260510020035 52 136 0.0 0.0 0.00 0.17 0.17 90 1011.1
20260510014545 52 136 0.0 0.0 0.00 0.17 0.17 90 1011.1
20260510013058 52 136 0.0 0.0 0.00 0.17 0.17 89 1011.0
20260510011518 53 136 0.0 0.0 0.00 0.17 0.17 89 1011.1
20260510010027 53 136 0.0 0.0 0.00 0.17 0.17 89 1010.7
20260510004545 54 136 0.0 0.0 0.00 0.17 0.17 88 1010.6
20260510003102 54 136 0.0 0.0 0.00 0.17 0.17 88 1010.7
20260510001506 54 136 0.0 0.0 0.00 0.17 0.17 87 1010.6
20260510000304 55 136 0.0 0.0 0.00 0.17 0.17 86 1010.5
20260510000018 55 136 0.0 0.0 0.00 0.17 0.17 86 1010.5
20260509234550 55 136 0.0 1.0 0.00 0.17 0.17 85 1010.5
20260509233035 56 136 0.0 0.0 0.00 0.17 0.17 84 1010.2
20260509231549 57 136 0.0 2.0 0.02 0.17 0.17 84 1010.3
20260509230049 57 162 0.0 1.0 0.05 0.17 0.17 85 1010.3
20260509224555 56 17 0.0 2.0 0.06 0.17 0.17 84 1010.6
20260509223014 56 103 1.0 2.0 0.10 0.17 0.17 84 1010.8
20260509221533 56 128 0.0 2.0 0.08 0.15 0.15 83 1011.1
20260509220319 57 117 0.0 1.0 0.05 0.12 0.12 82 1011.3
20260509220037 57 117 0.0 1.0 0.05 0.12 0.12 81 1011.3
20260509214549 58 28 0.0 3.0 0.03 0.10 0.10 77 1011.2
20260509213003 58 341 0.0 4.0 0.00 0.07 0.07 76 1010.8
20260509211522 58 8 0.0 3.0 0.00 0.07 0.07 76 1011.0
20260509210040 58 302 0.0 3.0 0.00 0.07 0.07 80 1010.9
20260509204559 57 352 0.0 2.0 0.01 0.07 0.07 81 1010.9
20260509203018 58 81 0.0 5.0 0.01 0.07 0.07 81 1011.2
20260509201527 58 360 1.0 4.0 0.01 0.07 0.07 81 1011.1
20260509200322 59 327 0.0 1.0 0.01 0.07 0.07 81 1011.3
20260509200025 58 7 0.0 2.0 0.01 0.07 0.07 81 1011.2
20260509194545 59 81 0.0 3.0 0.00 0.06 0.06 79 1011.4
20260509193004 59 335 0.0 1.0 0.02 0.06 0.06 79 1011.2
20260509191523 59 110 0.0 2.0 0.06 0.06 0.06 80 1011.0
20260509190035 59 32 1.0 4.0 0.06 0.06 0.06 80 1010.7
20260509184559 59 320 1.0 6.0 0.06 0.06 0.06 80 1010.8
20260509183056 61 293 0.0 4.0 0.04 0.04 0.04 75 1011.8